Murakami, Japan

11:26 AM JST on December 05, 2016 (GMT +0900)
Niigata

Weather History for RJSN - November, 2012

Change the Weather History Date:

Tuesday, November 13, 2012

  Actual Average Record
Temperature  
Mean Temperature 55 °F -  
Max Temperature 59 °F 55 °F 66 °F (2016)
Min Temperature 51 °F 45 °F 37 °F (2013)
Degree Days  
Heating Degree Days 10    
Growing Degree Days 5 (Base 50)    
Moisture  
Dew Point 48 °F    
Average Humidity 78    
Maximum Humidity 94    
Minimum Humidity 63    
Precipitation  
Precipitation 0.00 in - - ()
Sea Level Pressure  
Sea Level Pressure 29.59 in    
Wind  
Wind Speed 13 mph ()    
Max Wind Speed 34 mph    
Max Gust Speed 50 mph    
Visibility 5.4 miles    
Events Rain , Thunderstorm    
Averages and records for this station are not official NWS values.
T = Trace of Precipitation, MM = Missing Value Source: Averaged Metar Reports

Daily Weather History Graph

Daily Weather History Graph

Search for Another Location

Airport or City:

Trip Planner

Search our weather history database for the weather conditions in past years. The results will help you decide how hot, cold, wet, or windy it might be!

Date:

Astronomy

Nov. 13, 2012 Rise Set
Actual Time 6:21 AM JST 4:33 PM JST
Civil Twilight 5:53 AM JST 5:01 PM JST
Nautical Twilight 5:22 AM JST 5:32 PM JST
Astronomical Twilight 4:51 AM JST 6:04 PM JST
Moon 5:14 AM JST (11/13) 3:55 PM JST (11/13)
Length of Visible Light 11h 07m
Length of Day
10h 11m
Waning Crescent, 1% of the Moon is Illuminated
Nov 13
Waning Crescent
Nov 14
New
Nov 20
First Quarter
Nov 28
Full
Dec 7
Last Quarter

Hourly Weather History & Observations

Time (JST) Temp. Dew Point Humidity Pressure Visibility Wind Dir Wind Speed Gust Speed Precip Events Conditions
6:10 AM 53.6 °F 48.2 °F 82% 29.74 in 6.2 mi SSW 8.1 mph - N/A   Mostly Cloudy
7:00 AM 53.6 °F 48.2 °F 82% 29.71 in 6.2 mi South 6.9 mph - N/A   Mostly Cloudy
8:00 AM 55.4 °F 46.4 °F 72% 29.71 in 6.2 mi South 8.1 mph - N/A   Mostly Cloudy
9:00 AM 51.8 °F 50.0 °F 94% 29.71 in 6.2 mi SSE 8.1 mph - N/A Rain Light Rain Showers
10:00 AM 53.6 °F 50.0 °F 88% 29.68 in 6.2 mi South 4.6 mph - N/A Rain Light Rain Showers
11:00 AM 57.2 °F 48.2 °F 72% 29.65 in 6.2 mi South 6.9 mph - N/A   Mostly Cloudy
12:00 PM 59.0 °F 48.2 °F 67% 29.62 in 6.2 mi South 10.4 mph - N/A Rain Light Rain Showers
12:18 PM 55.4 °F 48.2 °F 77% 29.62 in 6.2 mi WSW 11.5 mph - N/A Rain Light Rain Showers
12:42 PM 57.2 °F 50.0 °F 77% 29.59 in 6.2 mi WSW 15.0 mph - N/A Rain , Thunderstorm Light Thunderstorms and Rain
1:00 PM 57.2 °F 48.2 °F 72% 29.59 in 6.2 mi WSW 17.3 mph - N/A Thunderstorm Thunderstorm
1:09 PM 57.2 °F 48.2 °F 72% 29.62 in 6.2 mi WSW 15.0 mph - N/A   Mostly Cloudy
2:00 PM 57.2 °F 44.6 °F 63% 29.59 in 6.2 mi WSW 13.8 mph - N/A   Mostly Cloudy
3:00 PM 57.2 °F 46.4 °F 67% 29.56 in 6.2 mi SW 15.0 mph - N/A   Mostly Cloudy
4:00 PM 57.2 °F 46.4 °F 67% 29.56 in 6.2 mi WSW 13.8 mph - N/A Rain Light Rain Showers
4:12 PM 55.4 °F 48.2 °F 77% 29.56 in 4.3 mi WSW 17.3 mph - N/A Rain Rain Showers
4:14 PM 55.4 °F 50.0 °F 82% 29.56 in 4.3 mi WSW 18.4 mph 29.9 mph N/A Rain Light Rain Showers
5:00 PM 55.4 °F 46.4 °F 72% 29.56 in 6.2 mi WSW 17.3 mph 29.9 mph N/A Rain Light Rain Showers
5:28 PM 55.4 °F 48.2 °F 77% 29.56 in 6.2 mi SW 28.8 mph 40.3 mph N/A Rain Light Rain Showers
5:48 PM 51.8 °F 48.2 °F 88% 29.56 in 4.3 mi West 18.4 mph - N/A Rain Rain Showers
6:00 PM 51.8 °F 48.2 °F 88% 29.56 in 4.3 mi WSW 18.4 mph - N/A Rain Rain Showers
6:13 PM 53.6 °F 48.2 °F 82% 29.56 in 5.0 mi WSW 12.7 mph - N/A Rain Light Rain Showers
6:28 PM 53.6 °F 48.2 °F 82% 29.56 in 5.0 mi WSW 17.3 mph 32.2 mph N/A Rain Light Rain Showers
7:00 PM 55.4 °F 46.4 °F 72% 29.53 in 6.2 mi SW 16.1 mph 29.9 mph N/A Rain Light Rain Showers
7:37 PM 55.4 °F 46.4 °F 72% 29.53 in 5.0 mi WSW 23.0 mph 46.0 mph N/A Rain Light Rain Showers
7:40 PM 53.6 °F 46.4 °F 77% 29.56 in 5.0 mi WSW 34.5 mph 49.5 mph N/A Rain Light Rain Showers
7:43 PM 51.8 °F 48.2 °F 88% 29.53 in 3.7 mi WSW 32.2 mph 49.5 mph N/A Rain Rain Showers
8:00 PM 51.8 °F 46.4 °F 82% 29.56 in 3.7 mi WSW 27.6 mph 39.1 mph N/A Rain , Thunderstorm Light Thunderstorms and Rain
8:11 PM 51.8 °F 46.4 °F 82% 29.56 in 4.3 mi WSW 24.2 mph - N/A Rain Light Rain Showers
8:22 PM 51.8 °F 46.4 °F 82% 29.56 in 3.7 mi West 21.9 mph - N/A Rain Rain Showers
8:30 PM 51.8 °F 44.6 °F 76% 29.56 in 4.3 mi WSW 19.6 mph 31.1 mph N/A Rain Light Rain Showers